Starlink 36163

operational
NORAD ID: 67008 Int'l Des: 2025-293 Owner: SPXS Country: US Constellation: starlink
LEOCIRCULAR

关于 Starlink 36163

正在加载描述...

实时位置

正在加载3D地球...

即将过境

高度历史

Altitude vs Time

uPlot chart will show altitude changes over time

两行轨道根数

1 67008C 25293F 25346.10673611 -.00410390 00000+0 -57934-3 0 3462
2 67008 69.9975 325.9186 0004186 271.4884 211.7584 16.05873932 18
Epoch: Dec 12, 2025 • Age: 54 hours

当前状态

高度 283.0 km
速度 7.74 km/s
星下点 -59.74°S, 106.16°E
发射日期 Dec 10, 2025
运行时间 3 days
类型 internet

技术详情

分类 Payload
质量 575.00 kg
干质量 530.00 kg
总质量 575.00 kg
长度 0.30 m
直径 4.10 m
跨度 29.00 m
形状 Box + pan
制造商 SPXS
平台类型 Starlink V2MO
阶段状态 In Orbit
所有者/国家 SPXS/US

大型星座

Loading constellations...